Regional Weather Roundup
Issued by NWS Green Bay, WI

Home | Current Version | Previous Version | Text Only | Print | Product List | Glossary On
Versions: 1 2 3 4 5 6 7 8 9 10 11 12 13 14 15 16 17 18 19 20 21 22 23 24 25 26 27 28 29 30 31 32 33 34 35 36 37 38 39 40 41 42 43 44 45 46 47 48 49 50
000
ASUS43 KGRB 191459
RWRGRB

NORTH-CENTRAL AND NORTHEAST WISCONSIN REGIONAL WEATHER ROUNDUP
NATIONAL WEATHER SERVICE GREEN BAY WI
1000 AM CDT SAT APR 19 2014

WIZ005-009-010>012-018-019-191600-
NORTH CENTRAL WISCONSIN

CITY           SKY/WX    TMP DP  RH WIND       PRES   REMARKS
IRONWOOD       CLOUDY    39  21  48 SE15G25   30.15F
MANITOWISH WTR NOT AVBL
ARBOR VITAE    NOT AVBL
EAGLE RIVER    NOT AVBL
LAND O LAKES   NOT AVBL
RHINELANDER    SUNNY     38  22  52 SE12G18   30.30R
PHILLIPS       NOT AVBL
ANTIGO         NOT AVBL
TOMAHAWK       NOT AVBL
MERRILL        NOT AVBL
$$

WIZ013-073-191600-
NORTHEAST WISCONSIN

CITY           SKY/WX    TMP DP  RH WIND       PRES   REMARKS
IRON MOUNTAIN  MOSUNNY   37  26  64 S17G23    30.35F
MARINETTE      MOSUNNY   36  30  80 SE9       30.42S
$$

WIZ017-030-035>037-045-191600-
CENTRAL WISCONSIN

CITY           SKY/WX    TMP DP  RH WIND       PRES   REMARKS
MEDFORD        NOT AVBL
WAUSAU         SUNNY     41  25  53 SE16      30.29F
MOSINEE        SUNNY     39  28  65 SE16      30.32F
MARSHFIELD     SUNNY     42  26  53 SE15      30.28F
WISC RAPIDS    SUNNY     44  24  45 SE14G20   30.33F
STEVENS POINT  NOT AVBL
WAUPACA        NOT AVBL
SHAWANO        NOT AVBL
CLINTONVILLE   NOT AVBL
$$

WIZ038-039-048-051-191600-
FOX VALLEY

CITY           SKY/WX    TMP DP  RH WIND       PRES   REMARKS
NWS GREEN BAY  SUNNY     40  31  70 SE14      30.40F
APPLETON       MOSUNNY   39  28  65 SE16      30.38F
OSHKOSH        MOSUNNY   42  29  59 SE12      30.37F
FOND DU LAC    MOSUNNY   43  28  55 SE17      30.37F
$$

WIZ022-050-052-191600-
EAST CENTRAL WISCONSIN

CITY           SKY/WX    TMP DP  RH WIND       PRES   REMARKS
STURGEON BAY   SUNNY     37  28  70 SE13      30.42F
MANITOWOC      NOT AVBL
SHEBOYGAN      MOSUNNY   38  29  70 SE12      30.41F
$$

LMZ563-521-522-541>543-191600-
LAKESHORE

STATION/POSITION TIME  TEMP    WIND        PRES    VSBY  WAVE
                       AIR SEA DIR/SP/G                  HT/PER
                 (UTC) (F)     (DEG/KT/KT) (MB)    (MI)  (FT/S)
SHEBOYGAN LKSHOR 1400   35     110/  9/ 10 1031.4F
KEWAUNEE LKSHORE 1400   35     120/  8/ 10 1031.2F
NORTHPORT PIER   1400   32     120/ 11/ 13 1030.8F
SISTER BAY LKSHO 1400   42     160/ 10/ 15   N/A
MENOMINEE LKSHOR 1400   31      10/  2/  3 1030.9F
$$



USA.gov is the U.S. government's official web portal to all federal, state and local government web resources and services.